Regional Weather Roundup
Issued by NWS

Home | Current Version | Previous Version | Text Only | Print | Product List | Glossary Off
Versions: 1 2 3 4 5 6 7 8 9 10 11 12 13 14 15 16 17 18 19 20 21 22 23 24 25 26 27 28 29 30 31 32 33 34 35 36 37 38 39 40 41 42 43 44 45 46 47 48 49 50

000
ASUS43 KFSD 312302
RWRSD

WEATHER ROUNDUP FOR SOUTH DAKOTA
NATIONAL WEATHER SERVICE SIOUX FALLS SD
600 PM CDT FRI JUL 31 2015

NOTE: "FAIR" INDICATES FEW OR NO CLOUDS BELOW 12,000 FEET WITH NO
SIGNIFICANT WEATHER AND/OR OBSTRUCTIONS TO VISIBILITY.


SDZ001>005-009-010-012>017-010000-
NORTHWEST AND NORTH CENTRAL SOUTH DAKOTA

CITY           SKY/WX    TMP DP  RH WIND       PRES   REMARKS
BUFFALO          N/A     90  40  17 SE12      30.05F
FAITH            N/A     91  38  15 N10       30.11F
MOBRIDGE       SUNNY     90  49  24 NW13      30.04F
$$

SDZ012>016-024>037-041>051-057-063-072>074-010000-
SOUTHWEST AND SOUTH CENTRAL SOUTH DAKOTA

CITY           SKY/WX    TMP DP  RH WIND       PRES   REMARKS
RAPID CTY ARPT SUNNY     83  55  38 NE9       30.13F
PIERRE         SUNNY     91  46  21 N7        30.05F
CUSTER         MOSUNNY   77  48  35 E10       30.29F
ELLSWORTH AFB  SUNNY     88  51  27 E8        30.13F
PHILIP         SUNNY     90  53  28 VRB3      30.08S
PINE RIDGE     SUNNY     93  49  22 N5        30.12F
WINNER         FAIR      93  53  25 NE10      30.07F
$$

SDZ004>011-016>023-039-040-010000-
NORTHEAST SOUTH DAKOTA

CITY           SKY/WX    TMP DP  RH WIND       PRES   REMARKS
ABERDEEN       SUNNY     89  51  27 NW15      30.03F
WATERTOWN      SUNNY     83  57  41 W9        30.07F
BROOKINGS      SUNNY     82  55  39 NW5       30.09F
SISSETON         N/A     84  58  40 NW7       30.02F
$$

SDZ017-020-022-023-036>040-048>070-010000-
SOUTHEAST SOUTH DAKOTA

CITY           SKY/WX    TMP DP  RH WIND       PRES   REMARKS
SIOUX FALLS    MOSUNNY   85  55  35 N3        30.07S
HURON          SUNNY     86  55  34 W6        30.05F
MITCHELL       SUNNY     88  55  32 CALM      30.06F
YANKTON        SUNNY     84  70  61 E8        30.05S
$$

ABBREVIATIONS USED IN REMARKS
   TC - TEMPERATURE IN CELSIUS
  WCI - WIND CHILL INDEX
   HX - HEAT INDEX
  VSB - VISIBILITY




USA.gov is the U.S. government's official web portal to all federal, state and local government web resources and services.